Zanzibar, Tanzania

3:15 AM EAT on March 24, 2017 (GMT +0300)
Zanzibar

Weather History for HTZA - January, 2013

Change the Weather History Date:

Tuesday, January 29, 2013

  Actual Average Record
Temperature  
Mean Temperature 82 °F -  
Max Temperature 92 °F 85 °F 95 °F (2017)
Min Temperature 74 °F 78 °F 71 °F (1999)
Cooling Degree Days 18    
Growing Degree Days 32 (Base 50)    
Moisture  
Dew Point 74 °F    
Average Humidity 73    
Maximum Humidity 96    
Minimum Humidity 47    
Precipitation  
Precipitation 0.00 in 0.07 in - ()
Sea Level Pressure  
Sea Level Pressure 29.80 in    
Wind  
Wind Speed 7 mph ()    
Max Wind Speed 18 mph    
Max Gust Speed -    
Visibility 10.1 miles    
Events      
Averages and records for this station are not official NWS values.
T = Trace of Precipitation, MM = Missing Value Source: Averaged Metar Reports

Daily Weather History Graph

Daily Weather History Graph

Search for Another Location

Airport or City:

Trip Planner

Search our weather history database for the weather conditions in past years. The results will help you decide how hot, cold, wet, or windy it might be!

Date:

Astronomy

Jan. 29, 2013 Rise Set
Actual Time 6:24 AM EAT 6:47 PM EAT
Civil Twilight 6:02 AM EAT 7:09 PM EAT
Nautical Twilight 5:37 AM EAT 7:35 PM EAT
Astronomical Twilight 5:11 AM EAT 8:01 PM EAT
Moon 8:26 PM EAT (1/29) 7:57 AM EAT (1/29)
Length of Visible Light 13h 07m
Length of Day
12h 23m
Waning Gibbous, 95% of the Moon is Illuminated
Jan 29
Waning Gibbous
Feb 3
Last Quarter
Feb 10
New
Feb 17
First Quarter
Feb 25
Full

Hourly Weather History & Observations

Time (EAT) Temp. Heat Index Dew Point Humidity Pressure Visibility Wind Dir Wind Speed Gust Speed Precip Events Conditions
4:00 AM 75.2 °F - 73.4 °F 94% 29.83 in 6.2 mi Calm Calm - N/A   Partly Cloudy
5:00 AM 75.2 °F - 73.4 °F 94% 29.83 in 6.2 mi Calm Calm - N/A   Partly Cloudy
6:00 AM 74 °F - 73 °F 96% 29.85 in 19 mi Calm Calm - -   Scattered Clouds
6:00 AM 75.2 °F - 73.4 °F 94% 29.83 in 6.2 mi Calm Calm - N/A   Partly Cloudy
7:00 AM 75.2 °F - 73.4 °F 94% 29.83 in 6.2 mi Calm Calm - N/A   Partly Cloudy
9:00 AM 83 °F - 74 °F 68% 29.89 in 16 mi North 11.5 mph - -   Partly Cloudy
9:00 AM 82.4 °F 88.2 °F 73.4 °F 74% 29.89 in 6.2 mi North 11.5 mph - N/A   Scattered Clouds
10:00 AM 84.2 °F 90.9 °F 73.4 °F 70% 29.86 in 6.2 mi NNE 11.5 mph - N/A   Mostly Cloudy
11:00 AM 84.2 °F 92.3 °F 75.2 °F 74% 29.86 in 6.2 mi West 11.5 mph - N/A   Mostly Cloudy
12:00 PM 86 °F - 76 °F 65% 29.86 in 19 mi WNW 16.1 mph - -   Mostly Cloudy
12:00 PM 86.0 °F 101.9 °F 80.6 °F 84% 29.83 in 6.2 mi WNW 16.1 mph - N/A   Mostly Cloudy
2:00 PM 89.6 °F 99.8 °F 75.2 °F 62% 29.77 in 6.2 mi WNW 10.4 mph - N/A   Scattered Clouds
3:00 PM 91 °F - 73 °F 47% 29.74 in 19 mi NNE 17.3 mph - -   Partly Cloudy
3:00 PM 91.4 °F 100.1 °F 73.4 °F 55% 29.74 in 6.2 mi NNE 17.3 mph - N/A   Scattered Clouds
4:00 PM 89.6 °F 98.2 °F 73.4 °F 59% 29.71 in 6.2 mi NNE 18.4 mph - N/A   Partly Cloudy
5:00 PM 87.8 °F 95.6 °F 73.4 °F 62% 29.68 in 6.2 mi ENE 18.4 mph - N/A   Partly Cloudy
6:00 PM 86 °F - 74 °F 59% 29.73 in 19 mi NE 17.3 mph - -   Scattered Clouds
6:00 PM 86.0 °F 93.4 °F 73.4 °F 66% 29.71 in 6.2 mi NE 17.3 mph - N/A   Partly Cloudy
9:00 PM 81 °F - 75 °F 78% 29.78 in 19 mi NNE 11.5 mph - -   Scattered Clouds